Onweer radar Meer informatie blitzortung!


Regen radar Meer informatie rain snow radar


Bezoek onze andere website:

Template documentation
and downloads

And another site



15 daagse weersverwachting Rapperswil-Jona, Jona (CH)

  • Overzicht
  • Per uur
  • 15 dagen
  • Extra
  • Vergelijk
  • Kaarten
  • Dagkaart
  • Meer »
  • Info
  • Statistieken
  • Directe link
    Temp 6h Neerslag Wind  
 06:05     20:57    Daglengte: 14:52 Morgen
02:00
16°
8.4 mm
2
08:00
14°
22.9 mm
3
14:00
16°
14.3 mm
2
20:00
16°
3.8 mm
1
 06:07     20:56    Daglengte: 14:49 Maandag 02 Aug
02:00
14°
3.9 mm
1
08:00
14°
 
1
14:00
20°
 
3
20:00
19°
13.9 mm
1
 06:08     20:54    Daglengte: 14:46 Dinsdag 03 Aug
02:00
14°
 
2
08:00
15°
 
1
14:00
20°
41.7 mm
2
20:00
17°
30.0 mm
3
Locatie info
Region: See-Gaster
Latitude: 47.2302°N
Longitude: 8.8374°E
424 masl
Postcode: 8645
Temp/Neerslag /Baro Onweer/Dauwpunt
    Temp Baro 1h Neerslag Dauwpunt Wind UV Bewolking  
 06:04     20:59    Daglengte: 14:55 Vandaag
23:00
17°
1010.9 hPa
48%
12.7°
1
Windvlaag: 1.7 m/s
86%
 06:05     20:57    Daglengte: 14:52 Morgen
00:00
17°
1010.5 hPa 2.0 mm
82%
12.9°
1
Windvlaag: 1.9 m/s
86%
01:00
16°
1010.1 hPa 1.7 mm
82%
13.3°
1
Windvlaag: -0 m/s
86%
02:00
16°
1010.0 hPa 4.7 mm
82%
13.7°
2
Windvlaag: 1.3 m/s
86%
03:00
16°
1009.5 hPa 3.5 mm
82%
14.2°
2
Windvlaag: -0.7 m/s
86%
04:00
15°
1009.3 hPa 2.6 mm
82%
14.4°
3
Windvlaag: 0 m/s
86%
05:00
15°
1008.9 hPa 2.5 mm
82%
13.8°
3
Windvlaag: -0.5 m/s
86%
06:00
15°
1009.8 hPa 4.2 mm
82%
13.7°
3
Windvlaag: 0.9 m/s
86%
07:00
15°
1010.7 hPa 5.3 mm
82%
13.8°
4
Windvlaag: -1.1 m/s
86%
08:00
14°
1011.3 hPa 4.8 mm
82%
13.6°
3
Windvlaag: -1.9 m/s
86%
09:00
14°
1012.0 hPa 3.8 mm
82%
13.6°
2
Windvlaag: -1.7 m/s
86%
10:00
14°
1012.7 hPa 4.2 mm
82%
13.1°
2
Windvlaag: -1.5 m/s
86%
11:00
14°
1013.1 hPa 3.3 mm
82%
12.4°
2
Windvlaag: -1.4 m/s
82%
12:00
15°
1013.1 hPa 3.0 mm
82%
12.2°
1
Windvlaag: 0.3 m/s
70%
13:00
15°
1012.7 hPa
82%
12.5°
1
Windvlaag: -1.1 m/s
50%
14:00
16°
1012.4 hPa
82%
12.4°
2
Windvlaag: -2.3 m/s
47%
15:00
17°
1012.2 hPa
82%
11.9°
2
Windvlaag: -2.6 m/s
51%
16:00
17°
1012.1 hPa
82%
11.4°
2
Windvlaag: -1.8 m/s
54%
17:00
17°
1012.3 hPa
82%
9.8°
2
Windvlaag: -2.2 m/s
84%
18:00
17°
1012.6 hPa
82%
9.1°
2
Windvlaag: -2 m/s
85%
19:00
16°
1013.0 hPa
82%
9.2°
2
Windvlaag: -0.6 m/s
82%
20:00
16°
1013.3 hPa 3.8 mm
82%
9.6°
1
Windvlaag: 2 m/s
72%
21:00
16°
1013.7 hPa
82%
10.8°
1
Windvlaag: 1.4 m/s
71%
22:00
15°
1014.5 hPa 3.9 mm
82%
10.9°
1
Windvlaag: 0.5 m/s
76%
23:00
15°
1014.9 hPa
74%
12.1°
1
Windvlaag: 1.9 m/s
21%
 06:07     20:56    Daglengte: 14:49 Maandag 02 Aug
00:00
15°
1014.8 hPa
22%
13.3°
1
Windvlaag: 2.6 m/s
16%
01:00
15°
1015.0 hPa
15%
13.1°
1
Windvlaag: 2.5 m/s
16%
02:00
14°
1015.1 hPa
14%
12.8°
1
Windvlaag: 2 m/s
17%
03:00
14°
1014.9 hPa
14%
12.7°
1
Windvlaag: 2.2 m/s
47%
04:00
14°
1015.1 hPa
14%
12.5°
1
Windvlaag: 2.2 m/s
17%
05:00
14°
1015.2 hPa
14%
12.2°
1
Windvlaag: 2 m/s
15%
06:00
14°
1015.5 hPa
14%
11.7°
1
Windvlaag: 1.1 m/s
16%
07:00
14°
1015.9 hPa
14%
11.5°
1
Windvlaag: 1.1 m/s
19%
08:00
14°
1015.9 hPa
14%
11.6°
1
Windvlaag: 1.1 m/s
17%
09:00
15°
1016.1 hPa
16%
11.9°
1
Windvlaag: -0.9 m/s
17%
10:00
16°
1016.1 hPa
22%
12.4°
2
Windvlaag: -1.4 m/s
15%
11:00
17°
1016.1 hPa
68%
12.7°
2
Windvlaag: -1.4 m/s
11%
12:00
18°
1015.8 hPa
31%
11.8°
2
Windvlaag: -1.8 m/s
9%
13:00
19°
1015.4 hPa
35%
11.0°
3
Windvlaag: -1.8 m/s
8%
14:00
20°
1015.1 hPa
37%
11.4°
3
Windvlaag: -1.9 m/s
7%
15:00
20°
1015.0 hPa
32%
12.2°
3
Windvlaag: -1.3 m/s
17%
16:00
20°
1015.0 hPa
24%
13.5°
3
Windvlaag: -1.6 m/s
12%
17:00
20°
1014.8 hPa 6.9 mm
34%
10.0°
3
Windvlaag: -1.7 m/s
14%
18:00
20°
1014.9 hPa 7.0 mm
32%
10.1°
3
Windvlaag: -1.2 m/s
32%
19:00
20°
1015.0 hPa
32%
11.5°
2
Windvlaag: -1.6 m/s
24%
20:00
19°
1015.3 hPa
33%
12.9°
1
Windvlaag: -0.8 m/s
20%
21:00
17°
1015.6 hPa
21%
12.3°
1
Windvlaag: 0.6 m/s
26%
22:00
16°
1016.0 hPa
21%
12.4°
1
Windvlaag: 1.3 m/s
36%
23:00
16°
1016.3 hPa
21%
12.3°
1
Windvlaag: 1.7 m/s
40%
 06:08     20:54    Daglengte: 14:46 Dinsdag 03 Aug
00:00
15°
1016.4 hPa
21%
11.4°
2
Windvlaag: 2 m/s
39%
01:00
14°
1016.0 hPa
21%
10.8°
2
Windvlaag: 2.1 m/s
46%
02:00
14°
1015.5 hPa
21%
9.9°
2
Windvlaag: 2.2 m/s
48%
03:00
14°
1015.2 hPa
21%
9.0°
2
Windvlaag: 2.4 m/s
33%
04:00
13°
1015.1 hPa
21%
8.5°
2
Windvlaag: 2.4 m/s
24%
05:00
13°
1014.8 hPa
21%
8.1°
2
Windvlaag: 2.2 m/s
28%
06:00
13°
1014.7 hPa
21%
7.8°
1
Windvlaag: 1.7 m/s
34%
07:00
14°
1014.7 hPa
21%
6.3°
1
Windvlaag: 1.6 m/s
56%
08:00
15°
1014.7 hPa
21%
7.9°
1
Windvlaag: 1.1 m/s
71%
09:00
16°
1014.6 hPa 6.8 mm
21%
8.4°
1
Windvlaag: 1.2 m/s
64%
10:00
18°
1014.3 hPa 7.0 mm
21%
9.1°
1
Windvlaag: 0.3 m/s
81%
11:00
18°
1014.1 hPa 6.9 mm
24%
8.1°
1
Windvlaag: -0.2 m/s
83%
12:00
19°
1013.8 hPa 6.8 mm
29%
8.4°
2
Windvlaag: -0.5 m/s
92%
13:00
20°
1013.5 hPa 6.9 mm
37%
10.3°
1
Windvlaag: -0.3 m/s
69%
14:00
20°
1013.0 hPa 7.4 mm
45%
13.9°
2
Windvlaag: 1 m/s
93%
15:00
22°
1012.8 hPa
55%
15.8°
2
Windvlaag: 8.9 m/s
97%
16:00
20°
1013.9 hPa 7.3 mm
100%
10.1°
5
Windvlaag: 10.1 m/s
97%
17:00
19°
1014.2 hPa 8.0 mm
100%
9.4°
4
Windvlaag: 8 m/s
87%
18:00
18°
1014.5 hPa 7.4 mm
100%
12.8°
2
Windvlaag: 6.3 m/s
94%
19:00
17°
1014.6 hPa 7.3 mm
100%
12.7°
2
Windvlaag: 7.7 m/s
63%
20:00
17°
1014.9 hPa
49%
13.2°
3
Windvlaag: 6.3 m/s
19%
21:00
18°
1013.7 hPa 21.0 mm
100%
15.5°
1
Windvlaag: 6.7 m/s
79%
22:00
17°
1014.1 hPa 21.1 mm
100%
15.5°
1
Windvlaag: 3.8 m/s
94%
Temp/Neerslag /Baro Onweer/Dauwpunt
    Temp Baro Neerslag Dauwpunt Wind Bewolking  
 06:04     20:59    Daglengte: 14:55 Vandaag
23:00
17°
1010.9 hPa   12.7°
1
86%
 06:05     20:57    Daglengte: 14:52 Morgen
02:00
16°
1010.0 hPa 8.4 mm 13.7°
2
86%
05:00
15°
1008.9 hPa 8.6 mm 13.8°
3
86%
08:00
14°
1011.3 hPa 14.3 mm 13.6°
3
86%
11:00
14°
1013.1 hPa 11.3 mm 12.4°
2
82%
14:00
16°
1012.4 hPa 3.0 mm 12.4°
2
47%
17:00
17°
1012.3 hPa   9.8°
2
84%
20:00
16°
1013.3 hPa 3.8 mm 9.6°
1
72%
23:00
15°
1014.9 hPa 3.9 mm 12.1°
1
21%
 06:07     20:56    Daglengte: 14:49 Maandag 02 Aug
02:00
14°
1015.1 hPa   12.8°
1
17%
05:00
14°
1015.2 hPa   12.2°
1
15%
08:00
14°
1015.9 hPa   11.6°
1
17%
11:00
17°
1016.1 hPa   12.7°
2
11%
14:00
20°
1015.1 hPa   11.4°
3
7%
17:00
20°
1014.8 hPa 6.9 mm 10.0°
3
14%
20:00
19°
1015.3 hPa 7.0 mm 12.9°
1
20%
23:00
16°
1016.3 hPa   12.3°
1
40%
 06:08     20:54    Daglengte: 14:46 Dinsdag 03 Aug
02:00
14°
1015.5 hPa   9.9°
2
48%
05:00
13°
1014.8 hPa   8.1°
2
28%
08:00
15°
1014.7 hPa   7.9°
1
71%
11:00
18°
1014.1 hPa 20.6 mm 8.1°
1
83%
14:00
20°
1013.0 hPa 21.1 mm 13.9°
2
93%
17:00
19°
1014.2 hPa 15.3 mm 9.4°
4
87%
20:00
17°
1014.9 hPa 14.7 mm 13.2°
3
19%
23:00
16°
1014.0 hPa 63.1 mm 14.6°
2
77%
 06:09     20:53    Daglengte: 14:44 Woensdag 04 Aug
02:00
15°
1013.5 hPa 63.3 mm 13.4°
2
92%
05:00
13°
1013.8 hPa 55.5 mm 11.6°
1
1%
08:00
15°
1013.8 hPa 55.5 mm 12.8°
1
1%
11:00
14°
1015.0 hPa 59.0 mm 13.9°
1
1%
14:00
16°
1015.2 hPa 60.5 mm 14.9°
1
1%
17:00
15°
1016.4 hPa 62.8 mm 14.8°
1
1%
20:00
14°
1017.1 hPa 64.5 mm 13.9°
1
1%
23:00
14°
1018.4 hPa 66.9 mm 13.1°
1
1%
 06:10     20:51    Daglengte: 14:41 Donderdag 05 Aug
02:00
12°
1018.3 hPa 67.2 mm 11.1°
0
1%
05:00
11°
1017.8 hPa 67.2 mm 10.1°
1
1%
08:00
13°
1016.6 hPa 67.2 mm 12.0°
1
0%
11:00
18°
1014.5 hPa 67.2 mm 11.8°
1
1%
14:00
20°
1013.1 hPa 67.3 mm 9.8°
3
1%
17:00
20°
1011.8 hPa 67.3 mm 10.2°
2
1%
20:00
16°
1012.0 hPa 67.4 mm 12.1°
1
1%
23:00
14°
1011.9 hPa 67.6 mm 11.6°
2
1%
 06:12     20:50    Daglengte: 14:38 Vrijdag 06 Aug
02:00
14°
1011.2 hPa 68.0 mm 12.9°
1
1%
05:00
12°
1011.3 hPa 68.8 mm 11.7°
1
1%
08:00
14°
1011.8 hPa 69.1 mm 12.8°
2
1%
11:00
17°
1012.2 hPa 69.3 mm 11.8°
4
1%
14:00
18°
1012.0 hPa 70.2 mm 12.1°
3
1%
17:00
18°
1011.9 hPa 70.8 mm 10.8°
3
1%
20:00
16°
1013.2 hPa 71.0 mm 12.2°
1
1%
23:00
13°
1015.3 hPa 71.1 mm 10.8°
1
0%
 06:13     20:48    Daglengte: 14:35 Zaterdag 07 Aug
02:00
13°
1015.2 hPa 71.1 mm 10.4°
1
0%
05:00
11°
1014.9 hPa 71.1 mm 9.8°
2
0%
08:00
14°
1014.2 hPa 71.1 mm 10.7°
1
0%
11:00
21°
1012.6 hPa 71.1 mm 11.9°
1
1%
14:00
25°
1011.0 hPa 71.1 mm 12.8°
2
0%
17:00
25°
1011.1 hPa 71.1 mm 13.8°
2
0%
20:00
21°
1011.6 hPa 142.2 mm 16.7°
1
0%
 06:14     20:47    Daglengte: 14:33 Zondag 08 Aug
02:00
16°
1013.5 hPa 142.2 mm 11.9°
2
0%
08:00
18°
1013.5 hPa 142.2 mm 14.1°
1
0%
14:00
26°
1015.4 hPa 142.2 mm 16.5°
3
0%
20:00
17°
1019.9 hPa 145.2 mm 17.1°
1
1%
 06:16     20:45    Daglengte: 14:29 Maandag 09 Aug
02:00
16°
1022.6 hPa 152.4 mm 15.5°
1
1%
08:00
16°
1023.9 hPa 155.3 mm 14.0°
0
1%
14:00
22°
1024.0 hPa 156.1 mm 12.0°
2
1%
20:00
17°
1025.1 hPa 156.3 mm 14.1°
1
0%
 06:17     20:44    Daglengte: 14:27 Dinsdag 10 Aug
02:00
12°
1027.1 hPa 156.4 mm 11.4°
1
1%
08:00
14°
1026.2 hPa 156.4 mm 11.9°
0
0%
14:00
23°
1023.4 hPa 156.4 mm 11.1°
2
0%
20:00
19°
1020.7 hPa 1.4 mm 15.6°
1
53%
 06:18     20:42    Daglengte: 14:24 Woensdag 11 Aug
02:00
14°
1021.8 hPa 0.6 mm 12.6°
1
42%
08:00
16°
1021.2 hPa   13.7°
0
44%
14:00
23°
1019.1 hPa 0.6 mm 14.9°
2
47%
20:00
19°
1019.6 hPa 1.9 mm 15.6°
1
49%
 06:19     20:40    Daglengte: 14:21 Donderdag 12 Aug
02:00
14°
1020.8 hPa   12.8°
1
50%
08:00
16°
1020.5 hPa 0.6 mm 13.8°
0
50%
14:00
23°
1019.0 hPa 0.8 mm 15.3°
2
47%
20:00
19°
1019.4 hPa 2.2 mm 15.8°
1
50%
 06:21     20:39    Daglengte: 14:18 Vrijdag 13 Aug
02:00
15°
1020.8 hPa 2.4 mm 12.9°
1
42%
08:00
16°
1020.9 hPa 0.9 mm 14.0°
1
38%
14:00
23°
1019.4 hPa 1.6 mm 15.3°
2
47%
20:00
19°
1019.7 hPa 1.3 mm 16.0°
1
48%
 06:22     20:37    Daglengte: 14:15 Zaterdag 14 Aug
02:00
15°
1021.2 hPa 0.4 mm 13.1°
1
45%
08:00
16°
1020.7 hPa 0.2 mm 14.1°
0
52%
14:00
24°
1018.5 hPa 0.4 mm 15.4°
2
49%
20:00
19°
1018.7 hPa 0.6 mm 16.1°
1
43%
 06:23     20:35    Daglengte: 14:12 Zondag 15 Aug
02:00
15°
1019.9 hPa 0.4 mm 13.0°
1
40%
08:00
16°
1019.4 hPa 0.4 mm 14.0°
0
37%
14:00
24°
1017.4 hPa 0.9 mm 15.2°
2
40%
20:00
19°
1017.9 hPa 1.4 mm 15.9°
1
45%
  CAPE Lifted Index Hail Supercell Tornado SRH 3km CL BTM PRES CL TOP PRES Swiss DWD icon SMHI TS
 06:04     20:59    Daglengte: 14:55 Vandaag
23:00 1 J/kg 0.2 K 0 % 0 % 0 % 0 m²/s² 0 0 0.56 80
 06:05     20:57    Daglengte: 14:52 Morgen
00:00 0 J/kg 0.1 K 0 % 0 % 0 % 0 m²/s² 0 0 0.22 80
01:00 1 J/kg -0.4 K 0 % 0 % 0 % 0 m²/s² 0 0 -0.4 80
02:00 1 J/kg -0.7 K 0 % 0 % 0 % 0 m²/s² 0 0 -0.22 80
03:00 1 J/kg -0.7 K 0 % 0 % 0 % 0 m²/s² 0 0 -0.61 80
04:00 2 J/kg -0.3 K 0 % 0 % 0 % 0 m²/s² 0 0 -0.27 3
05:00 5 J/kg -0.1 K 0 % 0 % 0 % 0 m²/s² 0 0 -0.01 61
06:00 10 J/kg 1.6 K 0 % 0 % 0 % 0 m²/s² 0 0 1.81 63
07:00 32 J/kg 1.5 K 0 % 0 % 0 % 0 m²/s² 0 0 1.5 63
08:00 89 J/kg 2.0 K 0 % 0 % 0 % 0 m²/s² 0 0 2.12 63
09:00 109 J/kg 1.3 K 0 % 0 % 0 % 0 m²/s² 0 0 1.33 61
10:00 111 J/kg 0.9 K 0 % 0 % 0 % 0 m²/s² 0 0 0.93 61
11:00 118 J/kg 0.2 K 0 % 0 % 0 % 0 m²/s² 0 0 0.32 61
12:00 147 J/kg 0.0 K 0 % 0 % 0 % 0 m²/s² 0 0 0.18 61
13:00 230 J/kg -1.0 K 0 % 0 % 0 % 0 m²/s² 0 0 -0.82 61
14:00 374 J/kg -1.4 K 0 % 0 % 0 % 0 m²/s² 0 0 -1.19 61
15:00 513 J/kg -2.0 K 0 % 0 % 0 % 0 m²/s² 0 0 -1.61 3
16:00 314 J/kg -1.4 K 0 % 0 % 0 % 0 m²/s² 0 0 -1.4 61
17:00 429 J/kg -1.2 K 0 % 0 % 0 % 0 m²/s² 0 0 -0.69 80
18:00 468 J/kg -1.4 K 0 % 0 % 0 % 0 m²/s² 0 0 -0.56 61
19:00 409 J/kg -1.5 K 0 % 0 % 0 % 0 m²/s² 0 0 -0.12 61
20:00 279 J/kg -0.9 K 0 % 0 % 0 % 0 m²/s² 0 0 0.72 61
21:00 162 J/kg -1.3 K 0 % 0 % 0 % 0 m²/s² 0 0 0.8 61
22:00 34 J/kg -1.6 K 0 % 0 % 0 % 0 m²/s² 0 0 0.44 61
23:00 0 J/kg -1.8 K 0 % 0 % 0 % 0 m²/s² 0 0 -1.11 2
 06:07     20:56    Daglengte: 14:49 Maandag 02 Aug
00:00 0 J/kg -1.5 K 0 % 0 % 0 % 0 m²/s² 0 0 -0.99 1
01:00 8 J/kg -2.5 K 0 % 0 % 0 % 0 m²/s² 0 0 -1.33 1
02:00 0 J/kg -1.8 K 0 % 0 % 0 % 0 m²/s² 0 0 -0.69 2
03:00 0 J/kg -1.1 K 0 % 0 % 0 % 0 m²/s² 0 0 -0.08 2
04:00 0 J/kg -0.9 K 0 % 0 % 0 % 0 m²/s² 0 0 0.12 2
05:00 0 J/kg -1.0 K 0 % 0 % 0 % 0 m²/s² 0 0 -0.07 2
06:00 0 J/kg -0.8 K 0 % 0 % 0 % 0 m²/s² 0 0 0.13 2
07:00 0 J/kg -0.1 K 0 % 0 % 0 % 0 m²/s² 0 0 0.44 2
08:00 0 J/kg 0.3 K 0 % 0 % 0 % 0 m²/s² 0 0 0.9 2
09:00 45 J/kg 0.6 K 0 % 0 % 0 % 0 m²/s² 0 0 1.02 1
10:00 158 J/kg -0.2 K 0 % 0 % 0 % 0 m²/s² 0 0 0.58 2
11:00 330 J/kg -1.0 K 0 % 0 % 0 % 0 m²/s² 0 0 -0.04 1
12:00 484 J/kg -1.7 K 0 % 0 % 0 % 0 m²/s² 0 0 -0.2 1
13:00 468 J/kg -1.7 K 0 % 0 % 0 % 0 m²/s² 0 0 0.46 2
14:00 396 J/kg -1.5 K 0 % 0 % 0 % 0 m²/s² 0 0 1.26 1
15:00 401 J/kg -1.6 K 0 % 0 % 0 % 0 m²/s² 0 0 1.4 2
16:00 282 J/kg -1.3 K 0 % 0 % 0 % 0 m²/s² 0 0 1.79 1
17:00 132 J/kg -0.7 K 0 % 0 % 0 % 0 m²/s² 0 0 2.3 1
18:00 249 J/kg -1.2 K 0 % 0 % 0 % 0 m²/s² 0 0 1.89 2
19:00 481 J/kg -2.0 K 0 % 0 % 0 % 0 m²/s² 0 0 0.94 2
20:00 660 J/kg -2.7 K 0 % 0 % 0 % 0 m²/s² 0 0 -0.09 1
21:00 473 J/kg -2.1 K 0 % 0 % 0 % 0 m²/s² 0 0 0.15 3
22:00 361 J/kg -1.9 K 0 % 0 % 0 % 0 m²/s² 0 0 0.56 3
23:00 256 J/kg -1.5 K 0 % 0 % 0 % 0 m²/s² 0 0 0.75 3
 06:08     20:54    Daglengte: 14:46 Dinsdag 03 Aug
00:00 198 J/kg -1.2 K 0 % 0 % 0 % 0 m²/s² 0 0 0.9 3
01:00 121 J/kg -1.0 K 0 % 0 % 0 % 0 m²/s² 0 0 1.19 3
02:00 26 J/kg -0.9 K 0 % 0 % 0 % 0 m²/s² 0 0 1.5 0
03:00 0 J/kg -0.6 K 0 % 0 % 0 % 0 m²/s² 0 0 2.1 0
04:00 0 J/kg -0.7 K 0 % 0 % 0 % 0 m²/s² 0 0 2 0
05:00 0 J/kg -0.4 K 0 % 0 % 0 % 0 m²/s² 0 0 2.36 0
06:00 0 J/kg -0.1 K 0 % 0 % 0 % 0 m²/s² 0 0 2.24 1
07:00 0 J/kg 0.0 K 0 % 0 % 0 % 0 m²/s² 0 0 1.74 3
08:00 0 J/kg 0.4 K 0 % 0 % 0 % 0 m²/s² 0 0 1.78 3
09:00 1 J/kg 0.9 K 0 % 0 % 0 % 0 m²/s² 0 0 2.07 3
10:00 61 J/kg -0.1 K 0 % 0 % 0 % 0 m²/s² 0 0 0.92 3
11:00 161 J/kg -0.9 K 0 % 0 % 0 % 0 m²/s² 0 0 0.45 3
12:00 355 J/kg -1.9 K 0 % 0 % 0 % 0 m²/s² 0 0 -0.52 3
13:00 460 J/kg -2.5 K 0 % 0 % 0 % 0 m²/s² 0 0 -0.76 3
14:00 677 J/kg -2.8 K 0 % 0 % 0 % 0 m²/s² 0 0 -1.57 3
15:00 502 J/kg -1.8 K 0 % 0 % 0 % 0 m²/s² 0 0 -0.72 3
16:00 102 J/kg 0.3 K 0 % 0 % 0 % 0 m²/s² 0 0 1.65 80
17:00 195 J/kg -0.5 K 0 % 0 % 0 % 0 m²/s² 0 0 0.97 80
18:00 477 J/kg -2.0 K 0 % 0 % 0 % 0 m²/s² 0 0 0.19 80
19:00 403 J/kg -0.7 K 0 % 0 % 0 % 0 m²/s² 0 0 1.76 80
20:00 375 J/kg -0.1 K 0 % 0 % 0 % 0 m²/s² 0 0 1.7 2
21:00 264 J/kg 0.9 K 0 % 0 % 0 % 0 m²/s² 0 0 2.97
22:00 215 J/kg 1.7 K 0 % 0 % 0 % 0 m²/s² 0 0 4.49
Temp Baro Wind Neerslag
  EWN Forecast EWN WRFDA DWD ICON FMI HIRLAM MET Norway GFS
 06:04     20:59    Daglengte: 14:55 Vandaag
23:00 17.1° 1010.9 hPa 0.7 m/s 0.0 mm 17.2° 1008.3 hPa 0.5 m/s 0.6 mm 17.0° 1011.1 hPa 0.6 m/s -0.8 mm 18.2° 1011.6 hPa 0.8 m/s 0.0 mm 16.0° 1011.1 hPa 0.4 m/s
 06:05     20:57    Daglengte: 14:52 Morgen
02:00 16.1° 1010.0 hPa 1.8 m/s 8.4 mm 14.8° 1007.5 hPa 2.3 m/s 1.8 mm 16.3° 1010.3 hPa 1.7 m/s 1.7 mm 17.1° 1009.5 hPa 1.8 m/s 0.0 mm 15.3° 1009.6 hPa 1.8 m/s
05:00 14.8° 1008.9 hPa 2.9 m/s 8.6 mm 14.5° 1006.9 hPa 3.3 m/s 8.1 mm 14.6° 1009.0 hPa 4.3 m/s 2.8 mm 16.2° 1008.9 hPa 3.0 m/s 0.0 mm 14.6° 1010.5 hPa 2.1 m/s
08:00 14.4° 1011.3 hPa 2.5 m/s 14.3 mm 14.2° 1008.7 hPa 3.0 m/s 22.6 mm 14.2° 1012.0 hPa 2.1 m/s 14.1 mm 15.5° 1010.7 hPa 4.1 m/s 0.0 mm 14.2° 1011.3 hPa 0.6 m/s
11:00 14.4° 1013.1 hPa 2.2 m/s 11.3 mm 15.1° 1010.3 hPa 0.9 m/s 35.2 mm 14.2° 1013.7 hPa 0.6 m/s 4.6 mm 15.3° 1012.3 hPa 3.5 m/s 0.0 mm 14.5° 1011.9 hPa 0.9 m/s
14:00 16.2° 1012.4 hPa 1.8 m/s 3.0 mm 17.8° 1010.1 hPa 1.5 m/s 38.8 mm 15.3° 1013.4 hPa 2.0 m/s 1.8 mm 16.1° 1012.3 hPa 1.6 m/s 0.0 mm 14.2° 1012.7 hPa 0.3 m/s
17:00 17.3° 1012.3 hPa 1.7 m/s 0.0 mm 17.2° 1010.8 hPa 1.9 m/s 48.1 mm 16.2° 1013.3 hPa 1.0 m/s 0.7 mm 19.3° 1011.1 hPa 1.6 m/s 0.0 mm 13.9° 1013.5 hPa 2.3 m/s
20:00 16.1° 1013.3 hPa 1.3 m/s 3.8 mm 17.5° 1011.0 hPa 2.9 m/s 54.9 mm 15.1° 1014.3 hPa 1.9 m/s 0.3 mm 18.3° 1011.7 hPa 1.1 m/s 0.0 mm 13.3° 1014.8 hPa 0.8 m/s
23:00 15.0° 1014.9 hPa 1.4 m/s 3.9 mm 14.9° 1013.0 hPa 2.6 m/s 55.3 mm 14.4° 1015.2 hPa 1.1 m/s 0.3 mm 16.0° 1014.4 hPa 2.6 m/s 0.0 mm 11.7° 1016.0 hPa 1.5 m/s
 06:07     20:56    Daglengte: 14:49 Maandag 02 Aug
02:00 14.4° 1015.1 hPa 1.3 m/s 0.0 mm 14.4° 1013.3 hPa 2.3 m/s 56.0 mm 13.1° 1015.7 hPa 1.1 m/s 0.0 mm 15.4° 1014.4 hPa 1.7 m/s 0.0 mm 10.2° 1016.3 hPa 1.6 m/s
05:00 14.0° 1015.2 hPa 1.0 m/s 0.0 mm 13.6° 1014.1 hPa 1.9 m/s 57.6 mm 13.0° 1015.5 hPa 0.8 m/s 0.0 mm 14.5° 1015.4 hPa 2.2 m/s 0.0 mm 9.8° 1016.8 hPa 1.5 m/s
08:00 14.4° 1015.9 hPa 0.9 m/s 0.0 mm 14.4° 1015.6 hPa 3.0 m/s 59.5 mm 13.9° 1016.5 hPa 0.7 m/s 0.0 mm 15.7° 1015.7 hPa 0.7 m/s 0.0 mm 13.0° 1017.1 hPa 0.8 m/s
11:00 17.0° 1016.1 hPa 1.9 m/s 0.0 mm 17.8° 1015.7 hPa 3.3 m/s 60.0 mm 17.1° 1016.6 hPa 2.1 m/s 0.0 mm 17.2° 1015.5 hPa 1.8 m/s 0.0 mm 19.0° 1016.3 hPa 1.4 m/s
14:00 19.7° 1015.1 hPa 2.8 m/s 0.0 mm 20.8° 1014.7 hPa 3.3 m/s 60.0 mm 19.6° 1015.6 hPa 2.8 m/s 0.0 mm 20.8° 1014.9 hPa 3.4 m/s 0.0 mm 21.7° 1014.8 hPa 2.4 m/s
17:00 20.5° 1014.8 hPa 3.2 m/s 6.9 mm 21.5° 1014.1 hPa 3.5 m/s 60.0 mm 20.8° 1015.2 hPa 3.5 m/s 0.0 mm 20.5° 1015.2 hPa 1.9 m/s
20:00 18.8° 1015.3 hPa 1.5 m/s 7.0 mm 20.1° 1014.5 hPa 1.7 m/s 60.1 mm 18.8° 1015.3 hPa 2.0 m/s 0.0 mm 16.6° 1016.2 hPa 1.1 m/s
23:00 15.5° 1016.3 hPa 1.5 m/s 0.0 mm 14.8° 1015.8 hPa 2.5 m/s 60.2 mm 16.3° 1016.4 hPa 1.1 m/s 0.0 mm 13.1° 1018.4 hPa 2.1 m/s
 06:08     20:54    Daglengte: 14:46 Dinsdag 03 Aug
02:00 14.0° 1015.5 hPa 1.7 m/s 0.0 mm 13.4° 1015.4 hPa 2.0 m/s 60.2 mm 14.2° 1016.3 hPa 1.1 m/s 0.0 mm 12.8° 1017.6 hPa 2.0 m/s
05:00 13.2° 1014.8 hPa 1.6 m/s 0.0 mm 12.6° 1014.3 hPa 2.9 m/s 60.2 mm 13.1° 1015.7 hPa 1.4 m/s 0.0 mm 11.8° 1016.6 hPa 2.0 m/s
08:00 15.0° 1014.7 hPa 0.8 m/s 0.0 mm 17.3° 1014.3 hPa 1.2 m/s 60.2 mm 14.7° 1015.4 hPa 0.6 m/s 0.0 mm 14.8° 1016.1 hPa 1.6 m/s
11:00 18.4° 1014.1 hPa 1.5 m/s 20.6 mm 21.8° 1013.2 hPa 1.6 m/s 60.2 mm 18.4° 1014.8 hPa 1.9 m/s 0.0 mm 22.5° 1014.0 hPa 0.8 m/s
14:00 20.4° 1013.0 hPa 1.6 m/s 21.1 mm 20.9° 1012.5 hPa 3.9 m/s 60.4 mm 21.6° 1012.8 hPa 1.5 m/s 0.0 mm 20.3° 1014.1 hPa 5.9 m/s
17:00 18.8° 1014.2 hPa 3.6 m/s 15.3 mm 22.0° 1012.4 hPa 4.7 m/s 62.0 mm 18.0° 1014.7 hPa 3.3 m/s 2.2 mm 14.7° 1016.6 hPa 1.1 m/s
20:00 17.2° 1014.9 hPa 2.7 m/s 14.7 mm 19.4° 1012.8 hPa 3.6 m/s 62.7 mm 16.7° 1015.4 hPa 2.4 m/s 1.2 mm 15.6° 1015.7 hPa 1.3 m/s
23:00 16.1° 1014.0 hPa 2.0 m/s 63.1 mm 16.1° 1014.0 hPa 2.0 m/s 63.1 mm 13.1° 1016.3 hPa 2.2 m/s
 06:09     20:53    Daglengte: 14:44 Woensdag 04 Aug
02:00 15.3° 1013.5 hPa 2.4 m/s 63.3 mm 15.3° 1013.5 hPa 2.4 m/s 63.3 mm 14.4° 1014.8 hPa 1.1 m/s
05:00 12.7° 1013.8 hPa 0.9 m/s 55.5 mm 12.7° 1013.8 hPa 0.9 m/s 55.5 mm
08:00 15.5° 1013.8 hPa 0.8 m/s 55.5 mm 15.5° 1013.8 hPa 0.8 m/s 55.5 mm
11:00 14.3° 1015.0 hPa 1.0 m/s 59.0 mm 14.3° 1015.0 hPa 1.0 m/s 59.0 mm
14:00 15.7° 1015.2 hPa 0.9 m/s 60.5 mm 15.7° 1015.2 hPa 0.9 m/s 60.5 mm
17:00 15.4° 1016.4 hPa 1.0 m/s 62.8 mm 15.4° 1016.4 hPa 1.0 m/s 62.8 mm
20:00 14.2° 1017.1 hPa 1.2 m/s 64.5 mm 14.2° 1017.1 hPa 1.2 m/s 64.5 mm
23:00 13.6° 1018.4 hPa 1.1 m/s 66.9 mm 13.6° 1018.4 hPa 1.1 m/s 66.9 mm
 06:10     20:51    Daglengte: 14:41 Donderdag 05 Aug
02:00 11.7° 1018.3 hPa 0.5 m/s 67.2 mm 11.7° 1018.3 hPa 0.5 m/s 67.2 mm
05:00 10.6° 1017.8 hPa 1.4 m/s 67.2 mm 10.6° 1017.8 hPa 1.4 m/s 67.2 mm
08:00 13.0° 1016.6 hPa 0.8 m/s 67.2 mm 13.0° 1016.6 hPa 0.8 m/s 67.2 mm
11:00 18.4° 1014.5 hPa 1.4 m/s 67.2 mm 18.4° 1014.5 hPa 1.4 m/s 67.2 mm
14:00 19.9° 1013.1 hPa 2.7 m/s 67.3 mm 19.9° 1013.1 hPa 2.7 m/s 67.3 mm
17:00 19.7° 1011.8 hPa 2.4 m/s 67.3 mm 19.7° 1011.8 hPa 2.4 m/s 67.3 mm
20:00 16.1° 1012.0 hPa 1.2 m/s 67.4 mm 16.1° 1012.0 hPa 1.2 m/s 67.4 mm
23:00 14.5° 1011.9 hPa 1.7 m/s 67.6 mm 14.5° 1011.9 hPa 1.7 m/s 67.6 mm
 06:12     20:50    Daglengte: 14:38 Vrijdag 06 Aug
02:00 13.8° 1011.2 hPa 1.0 m/s 68.0 mm 13.8° 1011.2 hPa 1.0 m/s 68.0 mm
05:00 12.2° 1011.3 hPa 1.5 m/s 68.8 mm 12.2° 1011.3 hPa 1.5 m/s 68.8 mm
08:00 14.0° 1011.8 hPa 1.8 m/s 69.1 mm 14.0° 1011.8 hPa 1.8 m/s 69.1 mm
11:00 16.8° 1012.2 hPa 3.9 m/s 69.3 mm 16.8° 1012.2 hPa 3.9 m/s 69.3 mm
14:00 18.0° 1012.0 hPa 3.5 m/s 70.2 mm 18.0° 1012.0 hPa 3.5 m/s 70.2 mm
17:00 18.4° 1011.9 hPa 2.5 m/s 70.8 mm 18.4° 1011.9 hPa 2.5 m/s 70.8 mm
20:00 16.4° 1013.2 hPa 1.4 m/s 71.0 mm 16.4° 1013.2 hPa 1.4 m/s 71.0 mm
23:00 13.3° 1015.3 hPa 1.4 m/s 71.1 mm 13.3° 1015.3 hPa 1.4 m/s 71.1 mm
 06:13     20:48    Daglengte: 14:35 Zaterdag 07 Aug
02:00 12.9° 1015.2 hPa 1.4 m/s 71.1 mm 12.9° 1015.2 hPa 1.4 m/s 71.1 mm
05:00 11.1° 1014.9 hPa 1.7 m/s 71.1 mm 11.1° 1014.9 hPa 1.7 m/s 71.1 mm
08:00 14.3° 1014.2 hPa 1.0 m/s 71.1 mm 14.3° 1014.2 hPa 1.0 m/s 71.1 mm
11:00 20.9° 1012.6 hPa 1.3 m/s 71.1 mm 20.9° 1012.6 hPa 1.3 m/s 71.1 mm
14:00 24.5° 1011.0 hPa 2.1 m/s 71.1 mm 24.5° 1011.0 hPa 2.1 m/s 71.1 mm
17:00 24.9° 1011.1 hPa 1.8 m/s 71.1 mm 24.9° 1011.1 hPa 1.8 m/s 71.1 mm
20:00 20.6° 1011.6 hPa 0.6 m/s 71.1 mm 20.6° 1011.6 hPa 0.6 m/s 71.1 mm
 06:14     20:47    Daglengte: 14:33 Zondag 08 Aug
02:00 16.1° 1013.5 hPa 2.2 m/s 71.1 mm 16.1° 1013.5 hPa 2.2 m/s 71.1 mm
08:00 18.4° 1013.5 hPa 1.3 m/s 71.1 mm 18.4° 1013.5 hPa 1.3 m/s 71.1 mm
14:00 26.2° 1015.4 hPa 3.1 m/s 71.1 mm 26.2° 1015.4 hPa 3.1 m/s 71.1 mm
20:00 17.4° 1019.9 hPa 1.0 m/s 73.5 mm 17.4° 1019.9 hPa 1.0 m/s 73.5 mm
 06:16     20:45    Daglengte: 14:29 Maandag 09 Aug
02:00 16.3° 1022.6 hPa 0.9 m/s 76.8 mm 16.3° 1022.6 hPa 0.9 m/s 76.8 mm
08:00 15.6° 1023.9 hPa 0.2 m/s 77.8 mm 15.6° 1023.9 hPa 0.2 m/s 77.8 mm
14:00 21.6° 1024.0 hPa 2.0 m/s 78.1 mm 21.6° 1024.0 hPa 2.0 m/s 78.1 mm
20:00 17.4° 1025.1 hPa 1.4 m/s 78.2 mm 17.4° 1025.1 hPa 1.4 m/s 78.2 mm
 06:17     20:44    Daglengte: 14:27 Dinsdag 10 Aug
02:00 12.4° 1027.1 hPa 1.3 m/s 78.2 mm 12.4° 1027.1 hPa 1.3 m/s 78.2 mm
08:00 14.3° 1026.2 hPa 0.5 m/s 78.2 mm 14.3° 1026.2 hPa 0.5 m/s 78.2 mm
14:00 23.0° 1023.4 hPa 2.4 m/s 78.2 mm 23.0° 1023.4 hPa 2.4 m/s 78.2 mm
20:00 19.0° 1020.7 hPa 0.8 m/s 1.4 mm
 06:18     20:42    Daglengte: 14:24 Woensdag 11 Aug
02:00 14.2° 1021.8 hPa 0.7 m/s 0.6 mm
08:00 15.9° 1021.2 hPa 0.4 m/s 0.0 mm
14:00 22.7° 1019.1 hPa 2.0 m/s 0.6 mm
20:00 18.7° 1019.6 hPa 0.9 m/s 1.9 mm
 06:19     20:40    Daglengte: 14:21 Donderdag 12 Aug
02:00 14.3° 1020.8 hPa 0.6 m/s 0.0 mm
08:00 15.8° 1020.5 hPa 0.3 m/s 0.6 mm
14:00 22.6° 1019.0 hPa 1.8 m/s 0.8 mm
20:00 18.9° 1019.4 hPa 0.9 m/s 2.2 mm
 06:21     20:39    Daglengte: 14:18 Vrijdag 13 Aug
02:00 14.6° 1020.8 hPa 0.9 m/s 2.4 mm
08:00 16.0° 1020.9 hPa 0.5 m/s 0.9 mm
14:00 23.1° 1019.4 hPa 1.6 m/s 1.6 mm
20:00 19.3° 1019.7 hPa 0.9 m/s 1.3 mm
 06:22     20:37    Daglengte: 14:15 Zaterdag 14 Aug
02:00 14.9° 1021.2 hPa 0.8 m/s 0.4 mm
08:00 16.3° 1020.7 hPa 0.4 m/s 0.2 mm
14:00 23.5° 1018.5 hPa 1.7 m/s 0.4 mm
20:00 19.5° 1018.7 hPa 1.1 m/s 0.6 mm
 06:23     20:35    Daglengte: 14:12 Zondag 15 Aug
02:00 14.8° 1019.9 hPa 0.8 m/s 0.4 mm
08:00 16.4° 1019.4 hPa 0.4 m/s 0.4 mm
14:00 23.6° 1017.4 hPa 1.7 m/s 0.9 mm
20:00 19.2° 1017.9 hPa 1.0 m/s 1.4 mm
FMI Hirlam - 7.5 km EWN WRFDA - 12 km DWD ICON - 7 km GFS - 25 km Basiskaart